,,Stat6,,Stat2,,Stat8,,Stat9,,Stat10,,Wind1,,Wind1,
time,status,PA1M_AVG,status,PR1M_SUM,status,RH1M_AVG,status,SR1M_AVG,status,TA1M_AVG,status,W1dAve1m,status,W1sAve1m,
2003-11-13, 00:00:00,VALID,917.674,VALID,0,VALID,100,VALID,0.0169808,VALID,19.9735,VALID,23,VALID,0,
2003-11-13, 00:01:00,VALID,917.66,VALID,0,VALID,100,VALID,0.0339617,VALID,19.976,VALID,58,VALID,0.114099,
2003-11-13, 00:02:00,VALID,917.648,VALID,0,VALID,100,VALID,0,VALID,19.9827,VALID,114,VALID,0.155488,
2003-11-13, 00:03:00,VALID,917.617,VALID,0,VALID,100,VALID,0,VALID,19.9894,VALID,114,VALID,0.00266768,
2003-11-13, 00:04:00,VALID,917.589,VALID,0,VALID,100,VALID,0.0339617,VALID,20.0026,VALID,2,VALID,0.332131,
2003-11-13, 00:05:00,VALID,917.578,VALID,0,VALID,100,VALID,0.0169808,VALID,20.0053,VALID,10,VALID,0.65718,
2003-11-13, 00:06:00,VALID,917.563,VALID,0,VALID,100,VALID,0.0169808,VALID,20.0058,VALID,10,VALID,0.493641,
2003-11-13, 00:07:00,VALID,917.555,VALID,0,VALID,100,VALID,0,VALID,19.9926,VALID,18,VALID,1.0558,
2003-11-13, 00:08:00,VALID,917.548,VALID,0,VALID,100,VALID,0,VALID,19.9989,VALID,20,VALID,0.924107,
2003-11-13, 00:09:00,VALID,917.534,VALID,0,VALID,100,VALID,0,VALID,19.9994,VALID,17,VALID,0.858665,
2003-11-13, 00:10:00,VALID,917.502,VALID,0,VALID,100,VALID,0,VALID,19.9897,VALID,11,VALID,1.14768,
2003-11-13, 00:11:00,VALID,917.48,VALID,0,VALID,100,VALID,0,VALID,19.9576,VALID,19,VALID,1.16387,
2003-11-13, 00:12:00,VALID,917.487,VALID,0,VALID,100,VALID,0,VALID,19.9671,VALID,15,VALID,1.02846,
2003-11-13, 00:13:00,VALID,917.483,VALID,0,VALID,100,VALID,0,VALID,19.9733,VALID,27,VALID,0.754836,
2003-11-13, 00:14:00,VALID,917.462,VALID,0,VALID,100,VALID,0,VALID,19.9574,VALID,2,VALID,0.44184,
2003-11-13, 00:15:00,VALID,917.469,VALID,0,VALID,100,VALID,0,VALID,19.9668,VALID,1,VALID,0.227679,
2003-11-13, 00:16:00,VALID,917.454,VALID,0,VALID,100,VALID,0.0339617,VALID,19.983,VALID,9,VALID,0.382626,
2003-11-13, 00:17:00,VALID,917.429,VALID,0,VALID,100,VALID,0,VALID,19.9668,VALID,12,VALID,0.757031,
2003-11-13, 00:18:00,VALID,917.412,VALID,0,VALID,100,VALID,0,VALID,19.9673,VALID,22,VALID,0.760356,
2003-11-13, 00:19:00,VALID,917.375,VALID,0,VALID,100,VALID,0.0169808,VALID,19.9445,VALID,19,VALID,1.21551,
2003-11-13, 00:20:00,VALID,917.331,VALID,0,VALID,100,VALID,-0.0509425,VALID,19.945,VALID,28,VALID,0.767933,
2003-11-13, 00:21:00,VALID,917.31,VALID,0,VALID,100,VALID,-0.101885,VALID,19.9099,VALID,28,VALID,0.413336,
2003-11-13, 00:22:00,VALID,917.296,VALID,0,VALID,100,VALID,-0.101885,VALID,19.9005,VALID,23,VALID,0.82706,
2003-11-13, 00:23:00,VALID,917.291,VALID,0,VALID,100,VALID,-0.101885,VALID,19.9037,VALID,20,VALID,0.316656,
2003-11-13, 00:24:00,VALID,917.285,VALID,0,VALID,100,VALID,-0.101885,VALID,19.89,VALID,78,VALID,0.253125,
2003-11-13, 00:25:00,VALID,917.272,VALID,0,VALID,100,VALID,0,VALID,19.8863,VALID,38,VALID,0.713086,
2003-11-13, 00:26:00,VALID,917.275,VALID,0,VALID,100,VALID,0,VALID,19.8664,VALID,34,VALID,0.75293,
2003-11-13, 00:27:00,VALID,917.294,VALID,0,VALID,100,VALID,0.0169808,VALID,19.8533,VALID,13,VALID,0.825036,
2003-11-13, 00:28:00,VALID,917.294,VALID,0,VALID,100,VALID,0,VALID,19.8441,VALID,17,VALID,0.802912,
2003-11-13, 00:29:00,VALID,917.286,VALID,0,VALID,100,VALID,-0.0169808,VALID,19.821,VALID,19,VALID,0.998326,
2003-11-13, 00:30:00,VALID,917.286,VALID,0,VALID,100,VALID,-0.0169808,VALID,19.8182,VALID,22,VALID,0.345313,
2003-11-13, 00:31:00,VALID,917.284,VALID,0,VALID,100,VALID,0,VALID,19.8379,VALID,354,VALID,0.631479,
2003-11-13, 00:32:00,VALID,917.288,VALID,0,VALID,100,VALID,0,VALID,19.8443,VALID,332,VALID,0.211868,
2003-11-13, 00:33:00,VALID,917.276,VALID,0,VALID,100,VALID,0,VALID,19.8247,VALID,1,VALID,0.292188,
2003-11-13, 00:34:00,VALID,917.262,VALID,0,VALID,100,VALID,-0.0339617,VALID,19.8379,VALID,304,VALID,0.298295,
2003-11-13, 00:35:00,VALID,917.251,VALID,0,VALID,100,VALID,0,VALID,19.8083,VALID,245,VALID,0.282012,
2003-11-13, 00:36:00,VALID,917.225,VALID,0,VALID,100,VALID,0,VALID,19.8056,VALID,113,VALID,0.281977,
2003-11-13, 00:37:00,VALID,917.222,VALID,0,VALID,100,VALID,0,VALID,19.8225,VALID,359,VALID,0.635417,
2003-11-13, 00:38:00,VALID,917.196,VALID,0,VALID,100,VALID,0,VALID,19.815,VALID,210,VALID,0.516135,
2003-11-13, 00:39:00,VALID,917.184,VALID,0,VALID,100,VALID,0,VALID,19.808,VALID,180,VALID,0.139137,
2003-11-13, 00:40:00,VALID,917.165,VALID,0,VALID,100,VALID,0,VALID,19.7986,VALID,127,VALID,0.141158,
2003-11-13, 00:41:00,VALID,917.159,VALID,0,VALID,100,VALID,0,VALID,19.7994,VALID,127,VALID,0.136628,
2003-11-13, 00:42:00,VALID,917.146,VALID,0,VALID,100,VALID,0,VALID,19.7859,VALID,156,VALID,0.359557,
2003-11-13, 00:43:00,VALID,917.15,VALID,0,VALID,100,VALID,0,VALID,19.7827,VALID,46,VALID,0.499818,
2003-11-13, 00:44:00,VALID,917.137,VALID,0,VALID,100,VALID,0,VALID,19.7917,VALID,29,VALID,0.581364,
2003-11-13, 00:45:00,VALID,917.128,VALID,0,VALID,100,VALID,0,VALID,19.818,VALID,30,VALID,0.507626,
2003-11-13, 00:46:00,VALID,917.138,VALID,0,VALID,100,VALID,0,VALID,19.8473,VALID,30,VALID,0.161685,
2003-11-13, 00:47:00,VALID,917.13,VALID,0,VALID,100,VALID,0,VALID,19.8538,VALID,26,VALID,0.410442,
2003-11-13, 00:48:00,VALID,917.112,VALID,0,VALID,100,VALID,0.0509425,VALID,19.8632,VALID,20,VALID,0.439215,
2003-11-13, 00:49:00,VALID,917.094,VALID,0,VALID,100,VALID,0,VALID,19.9052,VALID,17,VALID,0.859375,
2003-11-13, 00:50:00,VALID,917.088,VALID,0,VALID,100,VALID,-0.0679233,VALID,19.9097,VALID,18,VALID,0.753906,
2003-11-13, 00:51:00,VALID,917.08,VALID,0,VALID,100,VALID,-0.0849042,VALID,19.897,VALID,11,VALID,0.263263,
2003-11-13, 00:52:00,VALID,917.067,VALID,0,VALID,100,VALID,-0.101885,VALID,19.8848,VALID,4,VALID,0.576705,
2003-11-13, 00:53:00,VALID,917.061,VALID,0,VALID,100,VALID,-0.135847,VALID,19.8746,VALID,18,VALID,0.860491,
2003-11-13, 00:54:00,VALID,917.056,VALID,0,VALID,100,VALID,-0.0849042,VALID,19.8615,VALID,19,VALID,1.10636,
2003-11-13, 00:55:00,VALID,917.058,VALID,0,VALID,100,VALID,-0.101885,VALID,19.8749,VALID,11,VALID,0.900298,
2003-11-13, 00:56:00,VALID,917.053,VALID,0,VALID,100,VALID,-0.101885,VALID,19.8289,VALID,346,VALID,0.93657,
2003-11-13, 00:57:00,VALID,917.045,VALID,0,VALID,100,VALID,-0.101885,VALID,19.8558,VALID,19,VALID,0.62593,
2003-11-13, 00:58:00,VALID,917.028,VALID,0,VALID,100,VALID,-0.101885,VALID,19.8227,VALID,19,VALID,1.12422,
2003-11-13, 00:59:00,VALID,917.019,VALID,0,VALID,100,VALID,-0.0679233,VALID,19.8058,VALID,25,VALID,1.2803,
2003-11-13, 01:00:00,VALID,917.011,VALID,0,VALID,100,VALID,-0.0679233,VALID,19.823,VALID,19,VALID,1.2153,
2003-11-13, 01:01:00,VALID,917.003,VALID,0,VALID,100,VALID,-0.101885,VALID,19.8294,VALID,31,VALID,1.13281,
2003-11-13, 01:02:00,VALID,917.004,VALID,0,VALID,100,VALID,-0.101885,VALID,19.8262,VALID,14,VALID,0.848958,
2003-11-13, 01:03:00,VALID,917.013,VALID,0,VALID,100,VALID,-0.101885,VALID,19.7941,VALID,21,VALID,1.02976,
2003-11-13, 01:04:00,VALID,917.029,VALID,0,VALID,100,VALID,-0.101885,VALID,19.8006,VALID,23,VALID,1.08721,
2003-11-13, 01:05:00,VALID,917.022,VALID,0,VALID,100,VALID,-0.0849042,VALID,19.81,VALID,26,VALID,0.254861,
2003-11-13, 01:06:00,VALID,917.034,VALID,0,VALID,100,VALID,-0.0849042,VALID,19.8222,VALID,19,VALID,0.242759,
2003-11-13, 01:07:00,VALID,917.039,VALID,0,VALID,100,VALID,-0.0169808,VALID,19.8486,VALID,13,VALID,0.547433,
2003-11-13, 01:08:00,VALID,917.057,VALID,0,VALID,100,VALID,-0.0339617,VALID,19.8483,VALID,19,VALID,0.646354,
2003-11-13, 01:09:00,VALID,917.063,VALID,0,VALID,100,VALID,-0.0679233,VALID,19.8225,VALID,20,VALID,0.978516,
2003-11-13, 01:10:00,VALID,917.071,VALID,0,VALID,100,VALID,0,VALID,19.8322,VALID,27,VALID,1.15171,
2003-11-13, 01:11:00,VALID,917.088,VALID,0,VALID,100,VALID,-0.0679233,VALID,19.8354,VALID,22,VALID,0.702257,
2003-11-13, 01:12:00,VALID,917.098,VALID,0,VALID,100,VALID,-0.0679233,VALID,19.855,VALID,8,VALID,0.659412,
2003-11-13, 01:13:00,VALID,917.093,VALID,0,VALID,100,VALID,-0.0339617,VALID,19.8327,VALID,16,VALID,0.91369,
2003-11-13, 01:14:00,VALID,917.099,VALID,0,VALID,100,VALID,-0.0169808,VALID,19.8098,VALID,17,VALID,0.501065,
2003-11-13, 01:15:00,VALID,917.086,VALID,0,VALID,100,VALID,-0.0509425,VALID,19.8165,VALID,9,VALID,1.21795,
2003-11-13, 01:16:00,VALID,917.094,VALID,0,VALID,100,VALID,-0.0339617,VALID,19.7512,VALID,6,VALID,1.56649,
2003-11-13, 01:17:00,VALID,917.101,VALID,0,VALID,100,VALID,0,VALID,19.7318,VALID,11,VALID,1.11612,
2003-11-13, 01:18:00,VALID,917.119,VALID,0,VALID,100,VALID,-0.0339617,VALID,19.7517,VALID,17,VALID,1.09248,
2003-11-13, 01:19:00,VALID,917.129,VALID,0,VALID,100,VALID,-0.0339617,VALID,19.7581,VALID,83,VALID,0.394444,
2003-11-13, 01:20:00,VALID,917.143,VALID,0,VALID,100,VALID,-0.0169808,VALID,19.7449,VALID,56,VALID,0.305078,
2003-11-13, 01:21:00,VALID,917.122,VALID,0,VALID,100,VALID,-0.0509425,VALID,19.7648,VALID,22,VALID,0.987233,
2003-11-13, 01:22:00,VALID,917.128,VALID,0,VALID,100,VALID,-0.0339617,VALID,19.7807,VALID,18,VALID,0.907948,
2003-11-13, 01:23:00,VALID,917.103,VALID,0,VALID,100,VALID,-0.0679233,VALID,19.7877,VALID,28,VALID,0.696057,
2003-11-13, 01:24:01,VALID,917.088,VALID,0,VALID,100,VALID,-0.101885,VALID,19.7678,VALID,24,VALID,0.0536458,
2003-11-13, 01:25:00,VALID,917.072,VALID,0,VALID,100,VALID,-0.0509425,VALID,19.7807,VALID,29,VALID,0.0326705,
2003-11-13, 01:26:01,VALID,917.055,VALID,0,VALID,100,VALID,-0.0679233,VALID,19.7812,VALID,33,VALID,0.103924,
2003-11-13, 01:27:00,VALID,917.026,VALID,0,VALID,100,VALID,-0.0679233,VALID,19.784,VALID,37,VALID,0.170573,
2003-11-13, 01:28:01,VALID,917.013,VALID,0,VALID,100,VALID,-0.0509425,VALID,19.7807,VALID,87,VALID,0.299423,
2003-11-13, 01:29:00,VALID,917.004,VALID,0,VALID,100,VALID,-0.0509425,VALID,19.7743,VALID,99,VALID,0.212695,
2003-11-13, 01:30:00,VALID,916.981,VALID,0,VALID,100,VALID,-0.0679233,VALID,19.7748,VALID,31,VALID,0.348357,
2003-11-13, 01:31:00,VALID,916.969,VALID,0,VALID,100,VALID,-0.0339617,VALID,19.7936,VALID,24,VALID,0.471227,
2003-11-13, 01:32:00,VALID,916.95,VALID,0,VALID,100,VALID,-0.0169808,VALID,19.8066,VALID,24,VALID,0.0957485,
2003-11-13, 01:33:00,VALID,916.927,VALID,0,VALID,100,VALID,-0.0169808,VALID,19.7966,VALID,20,VALID,0.484012,
2003-11-13, 01:34:00,VALID,916.92,VALID,0,VALID,100,VALID,-0.0169808,VALID,19.7931,VALID,354,VALID,0.400112,
2003-11-13, 01:35:00,VALID,916.902,VALID,0,VALID,100,VALID,-0.0849042,VALID,19.8033,VALID,18,VALID,0.507813,
2003-11-13, 01:36:01,VALID,916.908,VALID,0,VALID,100,VALID,-0.0339617,VALID,19.8324,VALID,14,VALID,0.0811012,
2003-11-13, 01:37:00,VALID,916.901,VALID,0,VALID,100,VALID,-0.0169808,VALID,19.8389,VALID,9,VALID,0.0726744,
2003-11-13, 01:38:00,VALID,916.902,VALID,0,VALID,100,VALID,-0.0339617,VALID,19.8289,VALID,9,VALID,0,
2003-11-13, 01:39:00,VALID,916.884,VALID,0,VALID,100,VALID,-0.0509425,VALID,19.8356,VALID,9,VALID,0.0646802,
2003-11-13, 01:40:01,VALID,916.889,VALID,0,VALID,100,VALID,-0.0679233,VALID,19.8423,VALID,9,VALID,0.047433,
2003-11-13, 01:41:01,VALID,916.891,VALID,0,VALID,100,VALID,0,VALID,19.82,VALID,9,VALID,0.00220353,
2003-11-13, 01:42:00,VALID,916.879,VALID,0,VALID,100,VALID,0,VALID,19.7733,VALID,9,VALID,0.540923,
2003-11-13, 01:43:00,VALID,916.88,VALID,0,VALID,100,VALID,-0.0339617,VALID,19.7517,VALID,337,VALID,0.925495,
2003-11-13, 01:44:01,VALID,916.877,VALID,0,VALID,100,VALID,-0.0169808,VALID,19.7489,VALID,292,VALID,0.14008,
2003-11-13, 01:45:01,VALID,916.864,VALID,0,VALID,100,VALID,-0.0339617,VALID,19.7447,VALID,292,VALID,0,
2003-11-13, 01:46:01,VALID,916.839,VALID,0,VALID,100,VALID,-0.0679233,VALID,19.7584,VALID,304,VALID,0.0322917,
2003-11-13, 01:47:00,VALID,916.819,VALID,0,VALID,100,VALID,-0.0679233,VALID,19.7713,VALID,347,VALID,0.0416667,
2003-11-13, 01:48:00,VALID,916.791,VALID,0,VALID,100,VALID,-0.0169808,VALID,19.7845,VALID,335,VALID,0.279652,
2003-11-13, 01:49:00,VALID,916.75,VALID,0,VALID,100,VALID,-0.0509425,VALID,19.7415,VALID,348,VALID,0.391897,
2003-11-13, 01:50:00,VALID,916.708,VALID,0,VALID,100,VALID,0,VALID,19.729,VALID,358,VALID,0.847461,
2003-11-13, 01:51:00,VALID,916.695,VALID,0,VALID,100,VALID,-0.0339617,VALID,19.7005,VALID,355,VALID,0.522294,
2003-11-13, 01:52:00,VALID,916.663,VALID,0,VALID,100,VALID,-0.0339617,VALID,19.7,VALID,10,VALID,0.894141,
2003-11-13, 01:53:00,VALID,916.665,VALID,0,VALID,100,VALID,-0.0169808,VALID,19.7062,VALID,15,VALID,0.963481,
2003-11-13, 01:54:00,VALID,916.656,VALID,0,VALID,100,VALID,-0.0339617,VALID,19.7223,VALID,14,VALID,0.769903,
2003-11-13, 01:55:00,VALID,916.64,VALID,0,VALID,100,VALID,-0.0509425,VALID,19.732,VALID,22,VALID,0.0639881,
2003-11-13, 01:56:01,VALID,916.615,VALID,0,VALID,100,VALID,-0.0509425,VALID,19.7119,VALID,54,VALID,0.344322,
2003-11-13, 01:57:00,VALID,916.588,VALID,0,VALID,100,VALID,-0.0339617,VALID,19.7325,VALID,34,VALID,0.474787,
2003-11-13, 01:58:00,VALID,916.565,VALID,0,VALID,100,VALID,0,VALID,19.7122,VALID,16,VALID,0.818026,
2003-11-13, 01:59:00,VALID,916.514,VALID,0,VALID,100,VALID,-0.0169808,VALID,19.7226,VALID,8,VALID,0.57298,
2003-11-13, 02:00:01,VALID,916.484,VALID,0,VALID,100,VALID,-0.0169808,VALID,19.7355,VALID,7,VALID,0.285417,
2003-11-13, 02:01:00,VALID,916.454,VALID,0,VALID,100,VALID,-0.0169808,VALID,19.736,VALID,6,VALID,0,
2003-11-13, 02:02:01,VALID,916.42,VALID,0,VALID,100,VALID,-0.0339617,VALID,19.7387,VALID,6,VALID,0,
2003-11-13, 02:03:00,VALID,916.392,VALID,0,VALID,100,VALID,-0.0339617,VALID,19.7156,VALID,6,VALID,0,
2003-11-13, 02:04:00,VALID,916.359,VALID,0,VALID,100,VALID,-0.0509425,VALID,19.7395,VALID,6,VALID,0,
2003-11-13, 02:05:01,VALID,916.331,VALID,0,VALID,100,VALID,-0.0169808,VALID,19.7353,VALID,6,VALID,0.0632622,
2003-11-13, 02:06:00,VALID,916.309,VALID,0,VALID,100,VALID,0,VALID,19.7603,VALID,6,VALID,0.320694,
2003-11-13, 02:07:01,VALID,916.289,VALID,0,VALID,100,VALID,0,VALID,19.7728,VALID,6,VALID,0.395833,
2003-11-13, 02:08:00,VALID,916.283,VALID,0,VALID,100,VALID,0.0169808,VALID,19.7929,VALID,6,VALID,0.522917,
2003-11-13, 02:09:00,VALID,916.27,VALID,0,VALID,100,VALID,0,VALID,19.7996,VALID,6,VALID,0.454055,
2003-11-13, 02:10:01,VALID,916.258,VALID,0,VALID,100,VALID,0,VALID,19.7765,VALID,6,VALID,0.32832,
2003-11-13, 02:11:01,VALID,916.268,VALID,0,VALID,100,VALID,0,VALID,19.7728,VALID,10,VALID,0.604106,
2003-11-13, 02:12:00,VALID,916.248,VALID,0,VALID,100,VALID,0.0169808,VALID,19.7862,VALID,16,VALID,0.599432,
2003-11-13, 02:13:00,VALID,916.232,VALID,0,VALID,100,VALID,0.0509425,VALID,19.7765,VALID,13,VALID,0.00492527,
2003-11-13, 02:14:00,VALID,916.208,VALID,0,VALID,100,VALID,0.0339617,VALID,19.7797,VALID,13,VALID,0.26399,
2003-11-13, 02:15:01,VALID,916.197,VALID,0,VALID,100,VALID,0,VALID,19.7765,VALID,14,VALID,0.340353,
2003-11-13, 02:16:00,VALID,916.176,VALID,0,VALID,100,VALID,0.0169808,VALID,19.783,VALID,16,VALID,0.400641,
2003-11-13, 02:17:01,VALID,916.165,VALID,0,VALID,100,VALID,0.0169808,VALID,19.7859,VALID,13,VALID,0.321039,
2003-11-13, 02:18:01,VALID,916.154,VALID,0,VALID,100,VALID,0,VALID,19.7797,VALID,13,VALID,0.273065,
2003-11-13, 02:19:00,VALID,916.154,VALID,0,VALID,100,VALID,0,VALID,19.7765,VALID,13,VALID,0.166853,
2003-11-13, 02:20:01,VALID,916.136,VALID,0,VALID,100,VALID,0,VALID,19.7837,VALID,13,VALID,0.0283203,
2003-11-13, 02:21:01,VALID,916.125,VALID,0,VALID,100,VALID,0.0339617,VALID,19.7733,VALID,13,VALID,0.0154433,
2003-11-13, 02:22:01,VALID,916.122,VALID,0,VALID,100,VALID,0,VALID,19.7603,VALID,14,VALID,0.141868,
2003-11-13, 02:23:00,VALID,916.103,VALID,0,VALID,100,VALID,0,VALID,19.7474,VALID,14,VALID,0,
2003-11-13, 02:24:01,VALID,916.1,VALID,0,VALID,100,VALID,0.0169808,VALID,19.7345,VALID,14,VALID,0,
2003-11-13, 02:25:00,VALID,916.099,VALID,0,VALID,100,VALID,0,VALID,19.7348,VALID,107,VALID,0.175347,
2003-11-13, 02:26:01,VALID,916.094,VALID,0,VALID,100,VALID,0.0169808,VALID,19.7283,VALID,139,VALID,0,
2003-11-13, 02:27:00,VALID,916.104,VALID,0,VALID,100,VALID,0,VALID,19.7213,VALID,139,VALID,0.00272529,
2003-11-13, 02:28:00,VALID,916.109,VALID,0,VALID,100,VALID,0.0169808,VALID,19.7119,VALID,184,VALID,0.318979,
2003-11-13, 02:29:01,VALID,916.106,VALID,0,VALID,100,VALID,-0.0339617,VALID,19.6858,VALID,218,VALID,0.242746,
2003-11-13, 02:30:00,VALID,916.101,VALID,0,VALID,100,VALID,0,VALID,19.6632,VALID,236,VALID,0.61701,
2003-11-13, 02:31:00,VALID,916.114,VALID,0,VALID,100,VALID,0.0339617,VALID,19.6312,VALID,250,VALID,0.645898,
2003-11-13, 02:32:01,VALID,916.11,VALID,0,VALID,100,VALID,-0.0169808,VALID,19.6379,VALID,250,VALID,0.110156,
2003-11-13, 02:33:00,VALID,916.098,VALID,0,VALID,100,VALID,-0.0169808,VALID,19.6637,VALID,250,VALID,0,
2003-11-13, 02:34:00,VALID,916.08,VALID,0,VALID,100,VALID,0,VALID,19.6565,VALID,250,VALID,0,
2003-11-13, 02:35:01,VALID,916.069,VALID,0,VALID,100,VALID,0,VALID,19.6568,VALID,250,VALID,0,
2003-11-13, 02:36:00,VALID,916.043,VALID,0,VALID,100,VALID,0,VALID,19.6796,VALID,248,VALID,0.0674055,
2003-11-13, 02:37:00,VALID,916.015,VALID,0,VALID,100,VALID,0,VALID,19.6736,VALID,224,VALID,0.292878,
2003-11-13, 02:38:00,VALID,916.003,VALID,0,VALID,100,VALID,0,VALID,19.6508,VALID,223,VALID,0.119922,
2003-11-13, 02:39:00,VALID,915.998,VALID,0,VALID,100,VALID,0,VALID,19.6535,VALID,223,VALID,0.218023,
2003-11-13, 02:40:00,VALID,915.997,VALID,0,VALID,100,VALID,0,VALID,19.6632,VALID,342,VALID,0.472565,
2003-11-13, 02:41:00,VALID,916.011,VALID,0,VALID,100,VALID,0.0169808,VALID,19.6694,VALID,13,VALID,0.465892,
2003-11-13, 02:42:00,VALID,916.033,VALID,0,VALID,100,VALID,0.0339617,VALID,19.6888,VALID,33,VALID,0.615552,
2003-11-13, 02:43:01,VALID,916.041,VALID,0,VALID,100,VALID,0.0169808,VALID,19.6953,VALID,31,VALID,0.390278,
2003-11-13, 02:44:00,VALID,916.065,VALID,0,VALID,100,VALID,0,VALID,19.692,VALID,33,VALID,0.302269,
2003-11-13, 02:45:01,VALID,916.076,VALID,0,VALID,100,VALID,0.0169808,VALID,19.6861,VALID,17,VALID,0.65067,
2003-11-13, 02:46:01,VALID,916.065,VALID,0,VALID,100,VALID,0.0339617,VALID,19.6796,VALID,14,VALID,0.69371,
2003-11-13, 02:47:00,VALID,916.075,VALID,0,VALID,100,VALID,0,VALID,19.6764,VALID,10,VALID,0.736471,
2003-11-13, 02:48:01,VALID,916.078,VALID,0,VALID,100,VALID,0,VALID,19.6635,VALID,18,VALID,1.13167,
2003-11-13, 02:49:00,VALID,916.087,VALID,0,VALID,100,VALID,0.0169808,VALID,19.6664,VALID,22,VALID,0.861192,
2003-11-13, 02:50:01,VALID,916.091,VALID,0,VALID,100,VALID,0,VALID,19.6893,VALID,25,VALID,0.853659,
2003-11-13, 02:51:01,VALID,916.09,VALID,0,VALID,100,VALID,-0.0169808,VALID,19.696,VALID,15,VALID,0.877725,
2003-11-13, 02:52:00,VALID,916.092,VALID,0,VALID,100,VALID,0,VALID,19.699,VALID,18,VALID,1.15774,
2003-11-13, 02:53:00,VALID,916.093,VALID,0,VALID,100,VALID,0,VALID,19.6955,VALID,22,VALID,1.1733,
2003-11-13, 02:54:00,VALID,916.086,VALID,0,VALID,100,VALID,0,VALID,19.6828,VALID,14,VALID,1.46567,
2003-11-13, 02:55:00,VALID,916.07,VALID,0,VALID,100,VALID,0,VALID,19.6538,VALID,18,VALID,1.00182,
2003-11-13, 02:56:01,VALID,916.051,VALID,0,VALID,100,VALID,0.0169808,VALID,19.6413,VALID,21,VALID,0.764137,
2003-11-13, 02:57:00,VALID,916.034,VALID,0,VALID,100,VALID,0.0169808,VALID,19.6572,VALID,22,VALID,0.518787,
2003-11-13, 02:58:00,VALID,916.011,VALID,0,VALID,100,VALID,0,VALID,19.6346,VALID,15,VALID,0.887251,
2003-11-13, 02:59:00,VALID,916.002,VALID,0,VALID,100,VALID,-0.0169808,VALID,19.5994,VALID,355,VALID,0.416667,
2003-11-13, 03:00:00,VALID,915.981,VALID,0,VALID,100,VALID,0.0169808,VALID,19.5864,VALID,9,VALID,0.539971,
2003-11-13, 03:01:00,VALID,915.952,VALID,0,VALID,100,VALID,0,VALID,19.5827,VALID,13,VALID,0.46317,
2003-11-13, 03:02:01,VALID,915.936,VALID,0,VALID,100,VALID,0,VALID,19.5671,VALID,13,VALID,0.391959,
2003-11-13, 03:03:00,VALID,915.913,VALID,0,VALID,100,VALID,0,VALID,19.5504,VALID,13,VALID,0.421317,
2003-11-13, 03:04:01,VALID,915.924,VALID,0,VALID,100,VALID,0,VALID,19.5479,VALID,13,VALID,0.326823,
2003-11-13, 03:05:01,VALID,915.924,VALID,0,VALID,100,VALID,0.0169808,VALID,19.5412,VALID,13,VALID,0.234189,
2003-11-13, 03:06:00,VALID,915.915,VALID,0,VALID,100,VALID,0,VALID,19.5278,VALID,12,VALID,0.127003,
2003-11-13, 03:07:01,VALID,915.907,VALID,0,VALID,100,VALID,0,VALID,19.5348,VALID,12,VALID,0.418146,
2003-11-13, 03:08:01,VALID,915.883,VALID,0,VALID,100,VALID,-0.0169808,VALID,19.5315,VALID,20,VALID,0.87128,
2003-11-13, 03:09:01,VALID,915.881,VALID,0,VALID,100,VALID,-0.0169808,VALID,19.5315,VALID,10,VALID,0.810724,
2003-11-13, 03:10:00,VALID,915.895,VALID,0,VALID,100,VALID,0,VALID,19.5315,VALID,11,VALID,0.471236,
2003-11-13, 03:11:00,VALID,915.888,VALID,0,VALID,100,VALID,-0.0339617,VALID,19.5417,VALID,13,VALID,0.0442073,
2003-11-13, 03:12:01,VALID,915.87,VALID,0,VALID,100,VALID,0,VALID,19.5479,VALID,13,VALID,0.0459449,
2003-11-13, 03:13:00,VALID,915.875,VALID,0,VALID,100,VALID,0,VALID,19.541,VALID,13,VALID,0,
2003-11-13, 03:14:00,VALID,915.861,VALID,0,VALID,100,VALID,-0.0169808,VALID,19.5611,VALID,13,VALID,0.182478,
2003-11-13, 03:15:00,VALID,915.856,VALID,0,VALID,100,VALID,-0.0169808,VALID,19.5574,VALID,13,VALID,0.16424,
2003-11-13, 03:16:00,VALID,915.84,VALID,0,VALID,100,VALID,-0.0169808,VALID,19.571,VALID,13,VALID,0.310724,
2003-11-13, 03:17:00,VALID,915.822,VALID,0,VALID,100,VALID,0,VALID,19.5772,VALID,13,VALID,0.579975,
2003-11-13, 03:18:01,VALID,915.82,VALID,0,VALID,100,VALID,-0.0169808,VALID,19.5703,VALID,13,VALID,0.119665,
2003-11-13, 03:19:01,VALID,915.812,VALID,0,VALID,100,VALID,-0.0339617,VALID,19.5576,VALID,13,VALID,0.0394345,
2003-11-13, 03:20:01,VALID,915.788,VALID,0,VALID,100,VALID,0.0169808,VALID,19.5504,VALID,13,VALID,0.1875,
2003-11-13, 03:21:01,VALID,915.787,VALID,0,VALID,100,VALID,0.0679233,VALID,19.5626,VALID,13,VALID,0.217226,
2003-11-13, 03:22:01,VALID,915.773,VALID,0,VALID,100,VALID,0.0849042,VALID,19.5859,VALID,13,VALID,0.300409,
2003-11-13, 03:23:01,VALID,915.754,VALID,0,VALID,100,VALID,0.101885,VALID,19.5852,VALID,27,VALID,0.502725,
2003-11-13, 03:24:01,VALID,915.764,VALID,0,VALID,100,VALID,0.0849042,VALID,19.5879,VALID,37,VALID,0.384375,
2003-11-13, 03:25:01,VALID,915.77,VALID,0,VALID,100,VALID,0.101885,VALID,19.5979,VALID,24,VALID,0.475419,
2003-11-13, 03:26:01,VALID,915.785,VALID,0,VALID,100,VALID,0.0849042,VALID,19.6009,VALID,24,VALID,0.206424,
2003-11-13, 03:27:01,VALID,915.789,VALID,0,VALID,100,VALID,0.101885,VALID,19.6073,VALID,24,VALID,0.505556,
2003-11-13, 03:28:01,VALID,915.791,VALID,0,VALID,100,VALID,0.118866,VALID,19.6011,VALID,23,VALID,0.431784,
2003-11-13, 03:29:01,VALID,915.788,VALID,0,VALID,100,VALID,0.101885,VALID,19.6014,VALID,21,VALID,0.605859,
2003-11-13, 03:30:01,VALID,915.789,VALID,0,VALID,100,VALID,0.101885,VALID,19.575,VALID,25,VALID,0.542155,
2003-11-13, 03:31:01,VALID,915.785,VALID,0,VALID,100,VALID,0.101885,VALID,19.5656,VALID,28,VALID,0.535937,
2003-11-13, 03:32:01,VALID,915.801,VALID,0,VALID,100,VALID,0.101885,VALID,19.5785,VALID,17,VALID,0.594322,
2003-11-13, 03:33:01,VALID,915.821,VALID,0,VALID,100,VALID,0.101885,VALID,19.5981,VALID,16,VALID,0.660156,
2003-11-13, 03:34:01,VALID,915.834,VALID,0,VALID,100,VALID,0.101885,VALID,19.5887,VALID,17,VALID,0.385417,
2003-11-13, 03:35:01,VALID,915.838,VALID,0,VALID,100,VALID,0.0339617,VALID,19.5633,VALID,17,VALID,0.202744,
2003-11-13, 03:36:01,VALID,915.864,VALID,0,VALID,100,VALID,0,VALID,19.5641,VALID,23,VALID,0.47561,
2003-11-13, 03:37:01,VALID,915.879,VALID,0,VALID,100,VALID,0,VALID,19.5666,VALID,21,VALID,0.383765,
2003-11-13, 03:38:01,VALID,915.898,VALID,0,VALID,100,VALID,0,VALID,19.5537,VALID,6,VALID,0.243096,
2003-11-13, 03:39:01,VALID,915.905,VALID,0,VALID,100,VALID,0,VALID,19.5541,VALID,352,VALID,0.53452,
2003-11-13, 03:40:01,VALID,915.908,VALID,0,VALID,100,VALID,0,VALID,19.5313,VALID,323,VALID,0.657393,
2003-11-13, 03:41:01,VALID,915.917,VALID,0,VALID,100,VALID,0,VALID,19.5286,VALID,330,VALID,0.233259,
2003-11-13, 03:42:01,VALID,915.921,VALID,0,VALID,100,VALID,-0.0169808,VALID,19.5223,VALID,331,VALID,0.261458,
2003-11-13, 03:43:01,VALID,915.927,VALID,0,VALID,100,VALID,-0.0339617,VALID,19.5092,VALID,331,VALID,0.297619,
2003-11-13, 03:44:01,VALID,915.919,VALID,0,VALID,100,VALID,0,VALID,19.5124,VALID,331,VALID,0.228016,
2003-11-13, 03:45:01,VALID,915.935,VALID,0,VALID,100,VALID,-0.0169808,VALID,19.5124,VALID,331,VALID,0.299964,
2003-11-13, 03:46:00,VALID,915.935,VALID,0,VALID,100,VALID,0,VALID,19.5055,VALID,334,VALID,0.2883,